Weather History for Bentonville, AR

Change the Weather History Date:

Monday, April 1, 2013

  Actual Average Record
Temperature  
Mean Temperature 48 °F -  
Max Temperature 55 °F 63 °F 88 °F (1974)
Min Temperature 41 °F 37 °F 17 °F (1954)
Degree Days  
Heating Degree Days 17    
Moisture  
Dew Point 38 °F    
Average Humidity 73    
Maximum Humidity 87    
Minimum Humidity 47    
Precipitation  
Precipitation 0.00 in - - ()
Sea Level Pressure  
Sea Level Pressure 30.04 in    
Wind  
Wind Speed 2 mph (NE)    
Max Wind Speed 14 mph    
Max Gust Speed 17 mph    
Visibility 10 miles    
Events      
Averages and records for this station are not official NWS values.
T = Trace of Precipitation, MM = Missing Value Source: NWS Daily Summary

Daily Weather History Graph

Daily Weather History Graph

Search for Another Location

Airport:

Trip Planner

Search our weather history database for the weather conditions in past years. The results will help you decide how hot, cold, wet, or windy it might be!

Date:

Astronomy

Apr. 01, 2013 Rise Set
Actual Time 7:02 AM CDT 7:39 PM CDT
Civil Twilight 6:36 AM CDT 8:05 PM CDT
Nautical Twilight 6:06 AM CDT 8:35 PM CDT
Astronomical Twilight 5:34 AM CDT 9:07 PM CDT
Moon 12:40 AM CDT (4/1) 10:57 AM CDT (4/1)
Length of Visible Light 13h 28m
Length of Day
12h 36m
Waning Gibbous, 67% of the Moon is Illuminated
Apr 1
Waning Gibbous
Apr 2
Last Quarter
Apr 10
New
Apr 18
First Quarter
Apr 25
Full

Hourly Weather History & Observations

Time (CDT) Temp. Windchill Dew Point Humidity Pressure Visibility Wind Dir Wind Speed Gust Speed Precip Events Conditions
12:15 AM 48.2 °F - 37.4 °F 66% 29.97 in 10.0 mi Calm Calm - N/A   Clear
12:35 AM 48.2 °F - 37.4 °F 66% 29.97 in 10.0 mi Calm Calm - N/A   Clear
12:55 AM 46.4 °F - 39.2 °F 76% 29.97 in 10.0 mi Calm Calm - N/A   Clear
1:15 AM 46.4 °F - 37.4 °F 71% 29.97 in 10.0 mi Calm Calm - N/A   Clear
1:35 AM 46.4 °F - 37.4 °F 71% 29.97 in 10.0 mi Calm Calm - N/A   Clear
2:15 AM 46.4 °F 45.2 °F 39.2 °F 76% 29.98 in 10.0 mi South 3.5 mph - N/A   Clear
2:35 AM 44.6 °F 42.2 °F 37.4 °F 76% 29.98 in 10.0 mi South 4.6 mph - N/A   Clear
2:55 AM 42.8 °F 41.1 °F 37.4 °F 81% 29.98 in 10.0 mi South 3.5 mph - N/A   Clear
3:15 AM 42.8 °F - 37.4 °F 81% 29.98 in 10.0 mi Calm Calm - N/A   Clear
3:35 AM 44.6 °F - 39.2 °F 81% 29.99 in 10.0 mi Calm Calm - N/A   Clear
3:55 AM 44.6 °F - 39.2 °F 81% 29.99 in 10.0 mi Calm Calm - N/A   Clear
4:15 AM 44.6 °F - 39.2 °F 81% 29.99 in 10.0 mi Calm Calm - N/A   Clear
4:35 AM 44.6 °F - 39.2 °F 81% 30.00 in 10.0 mi Calm Calm - N/A   Clear
4:55 AM 42.8 °F - 37.4 °F 81% 30.01 in 10.0 mi Calm Calm - N/A   Clear
5:15 AM 44.6 °F - 37.4 °F 76% 30.02 in 10.0 mi Calm Calm - N/A   Clear
5:35 AM 42.8 °F - 37.4 °F 81% 30.02 in 10.0 mi Calm Calm - N/A   Clear
6:15 AM 41.0 °F 38.0 °F 37.4 °F 87% 30.03 in 10.0 mi SSE 4.6 mph - N/A   Clear
6:35 AM 41.0 °F - 37.4 °F 87% 30.03 in 10.0 mi Calm Calm - N/A   Clear
6:55 AM 42.8 °F - 37.4 °F 81% 30.04 in 10.0 mi Calm Calm - N/A   Clear
7:15 AM 42.8 °F - 37.4 °F 81% 30.05 in 10.0 mi Calm Calm - N/A   Clear
7:35 AM 42.8 °F - 37.4 °F 81% 30.06 in 10.0 mi Calm Calm - N/A   Clear
7:55 AM 42.8 °F - 37.4 °F 81% 30.08 in 10.0 mi Calm Calm - N/A   Clear
8:15 AM 44.6 °F 42.2 °F 39.2 °F 81% 30.09 in 10.0 mi NNE 4.6 mph - N/A   Clear
8:35 AM 48.2 °F - 39.2 °F 71% 30.09 in 10.0 mi NE 10.4 mph - N/A   Clear
8:55 AM 48.2 °F - 39.2 °F 71% 30.10 in 10.0 mi NE 11.5 mph - N/A   Clear
9:15 AM 48.2 °F - 39.2 °F 71% 30.09 in 10.0 mi NE 12.7 mph 17.3 mph N/A   Clear
9:35 AM 50.0 °F - 37.4 °F 62% 30.09 in 10.0 mi NE 13.8 mph - N/A   Clear
9:55 AM 51.8 °F - 39.2 °F 62% 30.11 in 10.0 mi NNE 12.7 mph - N/A   Clear
10:15 AM 51.8 °F - 37.4 °F 58% 30.11 in 10.0 mi NNE 11.5 mph - N/A   Clear
10:35 AM 53.6 °F - 37.4 °F 54% 30.13 in 10.0 mi NNE 11.5 mph - N/A   Clear
11:15 AM 55.4 °F - 35.6 °F 47% 30.13 in 10.0 mi NE 6.9 mph - N/A   Clear
11:35 AM 55.4 °F - 39.2 °F 54% 30.13 in 10.0 mi NNE 10.4 mph - N/A   Clear
11:55 AM 55.4 °F - 37.4 °F 51% 30.13 in 10.0 mi NE 6.9 mph - N/A   Clear